This is the latest recevied weather packets stored in our database for station/object SR2CPA-13. If no packets are shown the sender has not sent any weather packets the latest 1 day(s).
| Time | Temp. | Humidity | Pressure | Rain* | Wind** | Luminosity | Snow |
|---|---|---|---|---|---|---|---|
| 1778001657 | 12.22° C | 99% | 0 hPa | 0 mm | 1.34 m/s, 36° | - | - |
| 1778001057 | 12.22° C | 99% | 0 hPa | 0 mm | 1.34 m/s, 65° | - | - |
| 1778000457 | 12.22° C | 99% | 0 hPa | 0 mm | 2.24 m/s, 65° | - | - |
| 1777999857 | 12.78° C | 99% | 0 hPa | 0 mm | 1.34 m/s, 47° | - | - |
| 1777999257 | 12.78° C | 99% | 0 hPa | 0 mm | 1.34 m/s, 66° | - | - |
| 1777998637 | 12.78° C | 99% | 0 hPa | 0 mm | 0.89 m/s, 60° | - | - |
| 1777998037 | 12.78° C | 99% | 0 hPa | 0 mm | 1.34 m/s, 59° | - | - |
| 1777997437 | 12.78° C | 99% | 0 hPa | 0 mm | 1.34 m/s, 85° | - | - |
| 1777996837 | 12.78° C | 99% | 0 hPa | 0 mm | 0.89 m/s, 45° | - | - |
| 1777996237 | 12.78° C | 99% | 0 hPa | 0 mm | 0.89 m/s, 90° | - | - |
| 1777995637 | 12.78° C | 99% | 0 hPa | 0 mm | 2.24 m/s, 25° | - | - |
| 1777995017 | 12.78° C | 99% | 0 hPa | 0 mm | 0.89 m/s, 75° | - | - |
| 1777994417 | 12.78° C | 99% | 0 hPa | 0 mm | 1.79 m/s, 76° | - | - |
| 1777993817 | 12.78° C | 99% | 0 hPa | 0.25 mm | 0.89 m/s, 35° | - | - |
| 1777993197 | 12.78° C | 99% | 0 hPa | 1.02 mm | 1.79 m/s, 47° | - | - |
| 1777992597 | 12.78° C | 99% | 0 hPa | 1.27 mm | 0.89 m/s, 10° | - | - |
| 1777991977 | 12.78° C | 99% | 0 hPa | 1.27 mm | 1.34 m/s, 69° | - | - |
| 1777991377 | 12.78° C | 99% | 0 hPa | 1.52 mm | 1.34 m/s, 60° | - | - |
| 1777990777 | 12.78° C | 99% | 0 hPa | 1.78 mm | 0.89 m/s, 344° | - | - |
| 1777990177 | 12.78° C | 99% | 0 hPa | 1.27 mm | 0.89 m/s, 341° | - | - |
| 1777989577 | 12.78° C | 99% | 0 hPa | 1.02 mm | 1.34 m/s, 22° | - | - |
| 1777988977 | 12.78° C | 99% | 0 hPa | 0.76 mm | 3.13 m/s, 16° | - | - |
| 1777988357 | 12.78° C | 99% | 0 hPa | 0.51 mm | 0.89 m/s, 20° | - | - |
| 1777987757 | 13.33° C | 99% | 0 hPa | 0.25 mm | 1.79 m/s, 349° | - | - |
| 1777987137 | 13.33° C | 99% | 0 hPa | 0 mm | 0.89 m/s, 12° | - | - |
* Rain latest hour (hover to see other rain measurements)
** Current wind speed in m/s (hover to see current wind gust speed)